Showing default

LEMUR-2 FIKRETDENGIZ, 67363

Orbit data source: Space-Track

LEMUR-2 FIKRETDENGIZ, 67363 is a payload satellite owned by Spire/Lux (US) in SSO that was launched on Sun, 11 Jan 2026 UTC via an FALCON 9 launch vehicle from the Air Force Western Test Range (AFWTR). Payload-class satellites include a variety of spacecraft equipped with specific instruments for various scientific and technological missions. These include communications satellites like Starlink; space stations such as the ISS; scientific satellites like the Hubble; Earth observation satellites from companies like Planet Labs, Umbra, and HawkEye 360; GPS; miniature CubeSats for education and research; and military/defense satellites.

Loading next visibility...
Identifier
67363, 2026-004A
Orbit
SSO
Country
Flag of USUS
Related business
Manufacturer
Spire/Glasgow
Mission
Operational Commercial Com/MetRO
Bus & Motor
CUBESAT 3U, Unknown motor
Mass
4.6 kg wet, 4.6 kg dry
Launch date (UTC)
2026-01-11 (4 months ago)
Launch vehicle
FALCON 9
Launch site
Air Force Western Test Range (AFWTR)
Object type
Payload
Rocket body
Debris
Shape & HBR
Box + 2 Pan, 0.1 m
Radar Cross Section
0.054 m²

Expand to show TLE details & history
Last TLE update: 6 hours ago

TLE from 6 hours ago
0 LEMUR-2 FIKRETDENGIZ
1 67363U 26004A   26146.55193532  .00004321  00000-0  47479-3 0  9993
2 67363  97.8013 145.4463 0007958 200.1715 159.9189 14.88140787 20065
Epoch: 2026-05-26T13:14Z
TLE epoch observation values (Epoch: 2026-05-26T13:14:47.211Z)
Latitude
0.00003°
Longitude
62.62584°
Altitude
612 km
Speed
7.55 km/s
True Right ascension
09h 41m 47s
True Declination
0° 00' 00"
Sunlit
Object was in daylight at epoch
Visualization orbit readout
Latitude
Unknown
Longitude
Unknown
Altitude
Unknown
Speed
Unknown
Apparent Right ascension
Unknown
Apparent Declination
Unknown
Sunlit
N/A
Visualization observer readout
Local Sidereal Time
04:33:09
Azimuth
Unknown
Elevation
Unknown
Doppler factor
Unknown
Orbital elements
Apogee altitude
606.324 km
Perigee altitude
595.217 km
Semi-major axis
6,978.907 km
Eccentricity
0.0008
Inclination
97.8013°
RAAN
145.4463°
Arg. of periapsis
200.1715°
True anomaly
159.95018°
Mean anomaly
159.9189°
Eccentric anomaly
159.93454°
Mean motion
3.72273 °/min
Orbital period
96.7 mins
BSTAR
0.00047479
Loading maneuver chart data...
Computing Atmospheric mass density...
Loading historical data...
Loading historical data...
Loading historical data...
Loading historical data...
Loading historical data...
Loading historical data...
Loading historical data...

Documentation

Showing up to 5 results
|